Location: Unspecified
(45.4615°N, 74.0512°W)
Time: 08:38:38
(UTC-04:00)

Resurs 1-4 Rocket - Visible Passes

Search period start: 22 September 2018 00:00
Search period end: 02 October 2018 00:00
Orbit: 799 x 814 km, 98.5° (Epoch: 21 September)

Date Brightness Start Highest point End Pass type
(mag) Time Alt. Az. Time Alt. Az. Time Alt. Az.
22 Sep 4.4 02:10:59 10° NNE 02:12:46 19° NE 02:12:46 19° NE visible
22 Sep 3.4 03:50:47 10° N 03:53:51 29° NNW 03:53:51 29° NNW visible
23 Sep 4.8 01:47:02 10° NE 01:47:47 13° NE 01:47:47 13° NE visible
23 Sep 3.4 03:25:57 10° N 03:28:51 32° N 03:28:51 32° N visible
24 Sep 3.7 03:01:16 10° NNE 03:03:52 30° NNE 03:03:52 30° NNE visible
24 Sep 4.0 04:42:46 10° NNW 04:44:56 15° NW 04:44:56 15° NW visible
25 Sep 4.1 02:36:46 10° NNE 02:38:52 24° NNE 02:38:52 24° NNE visible
25 Sep 3.8 04:17:21 10° N 04:19:56 20° NW 04:19:56 20° NW visible
26 Sep 4.6 02:12:27 10° NNE 02:13:54 17° NE 02:13:54 17° NE visible
26 Sep 3.6 03:52:18 10° N 03:54:58 26° NNW 03:54:58 26° NNW visible
27 Sep 4.9 01:48:29 10° NE 01:48:54 12° NE 01:48:54 12° NE visible
27 Sep 3.7 03:27:27 10° N 03:29:58 28° N 03:29:58 28° N visible
28 Sep 4.0 03:02:46 10° NNE 03:04:58 26° NNE 03:04:58 26° NNE visible
28 Sep 4.1 04:44:22 10° NNW 04:46:03 14° NW 04:46:03 14° NW visible
29 Sep 4.3 02:38:16 10° NNE 02:40:00 21° NNE 02:40:00 21° NNE visible
29 Sep 3.9 04:18:54 10° NNW 04:21:03 19° NNW 04:21:03 19° NNW visible
30 Sep 4.7 02:13:57 10° NNE 02:15:01 15° NE 02:15:01 15° NE visible
30 Sep 3.8 03:53:50 10° N 03:56:04 22° NNW 03:56:04 22° NNW visible
01 Oct 5.1 01:49:55 10° NE 01:50:01 10° NE 01:50:01 10° NE visible
01 Oct 3.9 03:28:59 10° N 03:31:05 24° N 03:31:05 24° N visible
